Weather History for Kirksville, MO

Change the Weather History Date:

Monday, December 24, 2012

  Actual Average Record
Temperature  
Mean Temperature 19 °F 27 °F  
Max Temperature 21 °F 35 °F 63 °F (1955)
Min Temperature 17 °F 19 °F -20 °F (1983)
Degree Days  
Heating Degree Days 46 38  
Month to date heating degree days 679 853  
Since 1 July heating degree days 1949 2074  
Cooling Degree Days 0 0  
Month to date cooling degree days 0 0  
Year to date cooling degree days 1321 939  
Moisture  
Dew Point 16 °F    
Average Humidity 84    
Maximum Humidity 100    
Minimum Humidity 67    
Precipitation  
Precipitation 0.00 in 0.05 in 1.85 in (1965)
Month to date precipitation 1.67 1.46  
Year to date precipitation 28.09 39.02  
Sea Level Pressure  
Sea Level Pressure 30.04 in    
Wind  
Wind Speed 9 mph (NNW)    
Max Wind Speed 17 mph    
Max Gust Speed 21 mph    
Visibility 5 miles    
Events      
T = Trace of Precipitation, MM = Missing Value Source: NWS Daily Summary

Daily Weather History Graph

Daily Weather History Graph

Search for Another Location

Airport:

Trip Planner

Search our weather history database for the weather conditions in past years. The results will help you decide how hot, cold, wet, or windy it might be!

Date:

Astronomy

Dec. 24, 2012 Rise Set
Actual Time 7:30 AM CST 4:49 PM CST
Civil Twilight 6:59 AM CST 5:20 PM CST
Nautical Twilight 6:25 AM CST 5:54 PM CST
Astronomical Twilight 5:52 AM CST 6:27 PM CST
Moon 2:17 PM CST (12/24) 4:09 AM CST (12/24)
Length of Visible Light 10h 20m
Length of Day
9h 19m
Waxing Gibbous, 88% of the Moon is Illuminated
Dec 24
Waxing Gibbous
Dec 28
Full
Jan 4
Last Quarter
Jan 11
New
Jan 18
First Quarter

Hourly Weather History & Observations

Time (CST) Temp. Windchill Dew Point Humidity Pressure Visibility Wind Dir Wind Speed Gust Speed Precip Events Conditions
12:55 AM 19.0 °F 12.3 °F 16.0 °F 88% 29.95 in 4.0 mi NNW 4.6 mph - N/A   Clear
1:37 AM 19.4 °F 12.8 °F 17.6 °F 93% 29.89 in 4.0 mi North 4.6 mph - N/A   Mostly Cloudy
1:55 AM 19.0 °F 10.0 °F 17.1 °F 92% 29.97 in 4.0 mi NW 6.9 mph - N/A   Mostly Cloudy
2:05 AM 19.4 °F 10.4 °F 17.6 °F 93% 29.93 in 4.0 mi NW 6.9 mph - N/A   Mostly Cloudy
2:13 AM 19.4 °F 11.5 °F 17.6 °F 93% 29.93 in 4.0 mi NW 5.8 mph - N/A   Overcast
2:52 AM 19.4 °F 9.5 °F 19.4 °F 100% 29.92 in 2.5 mi North 8.1 mph - N/A   Overcast
2:55 AM 19.9 °F 10.1 °F 19.0 °F 96% 29.97 in 2.5 mi NNW 8.1 mph - N/A   Overcast
3:05 AM 19.4 °F 10.4 °F 19.4 °F 100% 29.92 in 2.0 mi NNW 6.9 mph - N/A   Overcast
3:39 AM 21.2 °F 11.7 °F 19.4 °F 93% 29.92 in 1.8 mi NNW 8.1 mph - N/A   Overcast
3:55 AM 21.0 °F 11.4 °F 19.0 °F 92% 29.97 in 1.8 mi NNW 8.1 mph - N/A   Overcast
4:20 AM 21.2 °F 11.7 °F 19.4 °F 93% 29.91 in 2.0 mi NNW 8.1 mph - N/A   Overcast
4:55 AM 21.0 °F 11.4 °F 19.0 °F 92% 29.96 in 2.5 mi NNW 8.1 mph - N/A   Overcast
5:09 AM 21.2 °F 10.1 °F 19.4 °F 93% 29.92 in 3.0 mi NW 10.4 mph - N/A   Overcast
5:55 AM 21.0 °F 11.4 °F 19.0 °F 92% 29.99 in 3.0 mi NNW 8.1 mph - N/A   Overcast
6:55 AM 19.9 °F 7.9 °F 18.0 °F 92% 30.02 in 3.0 mi NNW 11.5 mph - N/A   Overcast
7:42 AM 19.4 °F 6.0 °F 17.6 °F 93% 29.99 in 2.5 mi WNW 13.8 mph - N/A   Overcast
7:55 AM 19.0 °F 7.5 °F 17.1 °F 92% 30.04 in 1.8 mi NNW 10.4 mph - N/A   Overcast
8:25 AM 17.6 °F 7.3 °F 15.8 °F 93% 29.98 in 2.0 mi North 8.1 mph - N/A   Overcast
8:55 AM 18.0 °F 7.7 °F 16.0 °F 92% 30.05 in 2.0 mi NW 8.1 mph - N/A   Overcast
9:16 AM 17.6 °F 6.4 °F 17.6 °F 100% 30.00 in 1.8 mi NNW 9.2 mph - N/A   Overcast
9:26 AM 19.4 °F 8.6 °F 17.6 °F 93% 30.01 in 2.0 mi NW 9.2 mph - N/A   Overcast
9:55 AM 19.0 °F 9.0 °F 17.1 °F 92% 30.07 in 2.0 mi NW 8.1 mph - N/A   Overcast
10:55 AM 19.9 °F 8.6 °F 17.1 °F 89% 30.07 in 3.0 mi NNW 10.4 mph - N/A   Overcast
11:55 AM 21.0 °F 11.4 °F 18.0 °F 88% 30.08 in 3.0 mi WNW 8.1 mph - N/A   Overcast
12:50 PM 19.4 °F 7.2 °F 15.8 °F 86% 30.01 in 5.0 mi NW 11.5 mph - N/A   Haze
12:55 PM 19.9 °F 7.3 °F 15.1 °F 81% 30.06 in 5.0 mi NNW 12.7 mph - N/A   Haze
1:18 PM 19.4 °F 6.6 °F 14.0 °F 80% 30.00 in 7.0 mi NW 12.7 mph - N/A   Overcast
1:55 PM 19.9 °F 7.9 °F 12.9 °F 74% 30.06 in 7.0 mi NW 11.5 mph - N/A   Overcast
2:55 PM 19.0 °F 6.8 °F 12.0 °F 74% 30.09 in 6.0 mi NW 11.5 mph - N/A   Haze
3:55 PM 19.9 °F 9.3 °F 10.9 °F 68% 30.12 in 10.0 mi NW 9.2 mph - N/A   Overcast
4:41 PM 19.4 °F 8.6 °F 12.2 °F 74% 30.07 in 10.0 mi NNW 9.2 mph - N/A   Scattered Clouds
4:55 PM 19.9 °F 11.1 °F 12.0 °F 71% 30.13 in 10.0 mi NW 6.9 mph - N/A   Clear
5:45 PM 19.4 °F 7.2 °F 12.2 °F 74% 30.11 in 10.0 mi NNW 11.5 mph - N/A   Mostly Cloudy
5:55 PM 19.9 °F 7.9 °F 12.0 °F 71% 30.17 in 10.0 mi NW 11.5 mph - N/A   Mostly Cloudy
6:55 PM 19.0 °F 10.0 °F 12.0 °F 74% 30.18 in 10.0 mi NNW 6.9 mph - N/A   Overcast
7:35 PM 19.4 °F 8.6 °F 12.2 °F 74% 30.12 in 10.0 mi North 9.2 mph - N/A   Scattered Clouds
7:55 PM 19.0 °F 8.2 °F 12.9 °F 77% 30.17 in 10.0 mi North 9.2 mph - N/A   Clear
8:55 PM 19.0 °F 7.5 °F 12.9 °F 77% 30.17 in 9.0 mi North 10.4 mph - N/A   Partly Cloudy
9:10 PM 19.4 °F 7.9 °F 14.0 °F 80% 30.12 in 9.0 mi North 10.4 mph - N/A   Mostly Cloudy
9:44 PM 19.4 °F 7.2 °F 15.8 °F 86% 30.12 in 10.0 mi North 11.5 mph - N/A   Overcast
9:55 PM 19.9 °F 7.3 °F 15.1 °F 81% 30.18 in 10.0 mi North 12.7 mph - N/A   Overcast
10:55 PM 19.9 °F 9.3 °F 15.1 °F 81% 30.20 in 10.0 mi North 9.2 mph - N/A   Overcast
11:55 PM 19.9 °F 9.3 °F 15.1 °F 81% 30.22 in 10.0 mi North 9.2 mph - N/A   Overcast